Language: 


Des rapports , des résumés tant et plus, au choix de chacun....


Données statistiques de la station
Quotidien Rapport Avril 19, 2017 Unités:  Métrique    Anglais   les deux
« Précédent Jour
Suivant Jour »
Quotidien Hebdomadaire Mensuel Annuel Actuel
  Haut: Bas: Moyen:
Température: 13.2 °C 0.5 °C 6.8 °C
Pt de rosée: 2.0 °C -5.0 °C -1.5 °C
Humidité: 88 % 36 % 59 %
Vitesse du vent: 28.0 km/h 0.0 km/h 11.5 km/h
Rafales: 37.5 km/h - -
Vent:- - East
Pression: 1036.1 hPa 1030.0 hPa -
Précipitation: 0.0 mm    
Historical Graphs
 
 
Données statistiques pour Avril 19, 2017
Heure Température Point de rosée Pression Vent Vitesse du vent Refales Humidité Pluie (taux horaire)
00:01 4.3 °C 2.0 °C 1030.0 hPa ENE 5.0 km/h 9.3 km/h 84 % 0.0 mm
00:06 4.2 °C 2.0 °C 1031.0 hPa NNE 6.4 km/h 9.3 km/h 84 % 0.0 mm
00:11 4.1 °C 2.0 °C 1031.0 hPa NNE 6.1 km/h 9.3 km/h 84 % 0.0 mm
00:21 4.1 °C 2.0 °C 1031.0 hPa NE 6.9 km/h 6.9 km/h 85 % 0.0 mm
00:26 4.1 °C 2.0 °C 1031.0 hPa NNE 8.7 km/h 9.7 km/h 85 % 0.0 mm
00:32 4.1 °C 2.0 °C 1031.0 hPa NNE 8.7 km/h 11.9 km/h 86 % 0.0 mm
00:37 4.2 °C 2.0 °C 1031.0 hPa NE 9.0 km/h 13.0 km/h 86 % 0.0 mm
00:42 4.1 °C 2.0 °C 1031.0 hPa NNE 6.9 km/h 13.0 km/h 85 % 0.0 mm
00:47 4.0 °C 2.0 °C 1031.0 hPa North 8.7 km/h 10.1 km/h 85 % 0.0 mm
00:51 4.0 °C 2.0 °C 1031.0 hPa NNE 5.0 km/h 10.8 km/h 84 % 0.0 mm
00:56 3.9 °C 2.0 °C 1031.0 hPa NNE 7.9 km/h 10.8 km/h 85 % 0.0 mm
01:01 3.8 °C 1.0 °C 1031.0 hPa NNE 4.3 km/h 9.0 km/h 84 % 0.0 mm
01:06 3.7 °C 1.0 °C 1031.0 hPa NNE 5.0 km/h 9.7 km/h 84 % 0.0 mm
01:11 3.6 °C 1.0 °C 1031.0 hPa NE 6.9 km/h 9.7 km/h 84 % 0.0 mm
01:16 3.6 °C 1.0 °C 1031.0 hPa NE 7.6 km/h 10.1 km/h 84 % 0.0 mm
01:21 3.5 °C 2.0 °C 1031.0 hPa North 6.9 km/h 10.1 km/h 85 % 0.0 mm
01:26 3.4 °C 1.0 °C 1031.0 hPa NNE 9.3 km/h 11.1 km/h 85 % 0.0 mm
01:31 3.4 °C 1.0 °C 1031.0 hPa NE 9.3 km/h 11.1 km/h 85 % 0.0 mm
01:36 3.4 °C 1.0 °C 1031.0 hPa NNE 9.7 km/h 10.5 km/h 86 % 0.0 mm
01:41 3.6 °C 2.0 °C 1031.0 hPa NE 7.9 km/h 10.5 km/h 86 % 0.0 mm
01:46 3.7 °C 2.0 °C 1031.0 hPa NNE 10.1 km/h 12.6 km/h 86 % 0.0 mm
01:52 3.7 °C 2.0 °C 1031.0 hPa NNE 6.1 km/h 12.6 km/h 87 % 0.0 mm
01:57 3.6 °C 2.0 °C 1031.0 hPa NNE 8.7 km/h 12.6 km/h 86 % 0.0 mm
02:02 3.5 °C 2.0 °C 1031.0 hPa NNE 8.7 km/h 11.6 km/h 86 % 0.0 mm
02:07 3.5 °C 2.0 °C 1031.0 hPa NE 6.4 km/h 10.1 km/h 86 % 0.0 mm
02:12 3.5 °C 2.0 °C 1031.0 hPa NNE 8.7 km/h 10.1 km/h 86 % 0.0 mm
02:17 3.5 °C 2.0 °C 1031.0 hPa NNE 8.7 km/h 9.7 km/h 87 % 0.0 mm
02:22 3.4 °C 2.0 °C 1031.0 hPa NE 9.7 km/h 10.5 km/h 87 % 0.0 mm
02:27 3.4 °C 2.0 °C 1031.0 hPa NNE 11.9 km/h 11.9 km/h 87 % 0.0 mm
02:32 3.4 °C 2.0 °C 1031.0 hPa NE 9.0 km/h 11.9 km/h 87 % 0.0 mm
02:37 3.5 °C 2.0 °C 1031.0 hPa NE 9.7 km/h 11.9 km/h 87 % 0.0 mm
02:42 3.5 °C 2.0 °C 1031.0 hPa North 9.7 km/h 12.6 km/h 88 % 0.0 mm
02:47 3.6 °C 2.0 °C 1031.0 hPa NE 6.1 km/h 13.0 km/h 88 % 0.0 mm
02:57 3.5 °C 2.0 °C 1031.0 hPa NE 8.7 km/h 13.0 km/h 87 % 0.0 mm
03:02 3.4 °C 2.0 °C 1031.0 hPa NE 7.9 km/h 11.9 km/h 87 % 0.0 mm
03:07 3.2 °C 2.0 °C 1031.0 hPa NNE 6.1 km/h 11.6 km/h 87 % 0.0 mm
03:12 3.1 °C 1.0 °C 1031.0 hPa North 9.7 km/h 10.5 km/h 86 % 0.0 mm
03:18 3.1 °C 1.0 °C 1031.0 hPa NE 8.7 km/h 10.8 km/h 87 % 0.0 mm
03:23 3.1 °C 1.0 °C 1032.1 hPa NE 9.3 km/h 12.6 km/h 87 % 0.0 mm
03:28 3.1 °C 1.0 °C 1032.1 hPa North 8.7 km/h 12.6 km/h 88 % 0.0 mm
03:33 3.1 °C 1.0 °C 1032.1 hPa NE 9.0 km/h 12.2 km/h 88 % 0.0 mm
03:38 3.1 °C 1.0 °C 1032.1 hPa NE 10.1 km/h 13.7 km/h 87 % 0.0 mm
03:43 3.1 °C 1.0 °C 1032.1 hPa NE 11.9 km/h 13.7 km/h 87 % 0.0 mm
03:48 3.1 °C 1.0 °C 1032.1 hPa NE 11.9 km/h 14.0 km/h 87 % 0.0 mm
03:53 3.1 °C 1.0 °C 1032.1 hPa NE 9.0 km/h 14.0 km/h 87 % 0.0 mm
03:58 3.1 °C 1.0 °C 1032.1 hPa NE 9.0 km/h 13.7 km/h 87 % 0.0 mm
04:03 3.0 °C 1.0 °C 1032.1 hPa NE 7.9 km/h 12.2 km/h 87 % 0.0 mm
04:08 2.9 °C 1.0 °C 1032.1 hPa NE 8.7 km/h 14.0 km/h 87 % 0.0 mm
04:13 2.8 °C 1.0 °C 1032.1 hPa ENE 11.9 km/h 14.0 km/h 87 % 0.0 mm
04:18 2.8 °C 1.0 °C 1032.1 hPa NE 10.5 km/h 12.6 km/h 87 % 0.0 mm
04:23 2.9 °C 1.0 °C 1032.1 hPa ENE 14.0 km/h 15.8 km/h 87 % 0.0 mm
04:29 3.0 °C 1.0 °C 1032.1 hPa ENE 12.2 km/h 15.8 km/h 87 % 0.0 mm
04:34 2.9 °C 1.0 °C 1032.1 hPa NE 11.1 km/h 15.8 km/h 87 % 0.0 mm
04:39 2.9 °C 1.0 °C 1032.1 hPa NE 12.2 km/h 16.6 km/h 86 % 0.0 mm
04:44 2.8 °C 1.0 °C 1032.1 hPa NE 11.9 km/h 16.6 km/h 85 % 0.0 mm
04:49 2.8 °C 1.0 °C 1032.1 hPa ENE 9.7 km/h 16.6 km/h 85 % 0.0 mm
04:54 2.7 °C 1.0 °C 1032.1 hPa ENE 10.5 km/h 16.6 km/h 84 % 0.0 mm
04:59 2.7 °C 1.0 °C 1032.1 hPa ENE 11.1 km/h 16.6 km/h 84 % 0.0 mm
05:04 2.7 °C 1.0 °C 1032.1 hPa NE 10.1 km/h 16.6 km/h 84 % 0.0 mm
05:09 2.6 °C 0.0 °C 1032.1 hPa NE 6.9 km/h 14.8 km/h 83 % 0.0 mm
05:14 2.4 °C 0.0 °C 1032.1 hPa NNE 10.1 km/h 12.2 km/h 83 % 0.0 mm
05:19 2.3 °C 0.0 °C 1032.1 hPa NE 8.7 km/h 12.2 km/h 82 % 0.0 mm
05:24 2.1 °C 0.0 °C 1032.1 hPa NE 6.9 km/h 10.8 km/h 82 % 0.0 mm
05:29 2.0 °C 0.0 °C 1032.1 hPa NNE 6.9 km/h 10.8 km/h 82 % 0.0 mm
05:34 1.9 °C -1.0 °C 1032.1 hPa NNE 7.2 km/h 10.5 km/h 82 % 0.0 mm
05:39 1.7 °C -1.0 °C 1032.1 hPa North 5.8 km/h 10.5 km/h 82 % 0.0 mm
05:44 1.6 °C -1.0 °C 1032.1 hPa NE 4.7 km/h 10.1 km/h 82 % 0.0 mm
05:45 1.5 °C -1.0 °C 1032.1 hPa NNE 6.4 km/h 10.1 km/h 82 % 0.0 mm
05:51 1.4 °C -1.0 °C 1032.1 hPa NNE 7.9 km/h 9.7 km/h 83 % 0.0 mm
05:56 1.3 °C -1.0 °C 1032.1 hPa ENE 9.0 km/h 9.7 km/h 83 % 0.0 mm
06:01 1.2 °C -1.0 °C 1032.1 hPa NE 4.7 km/h 9.0 km/h 83 % 0.0 mm
06:06 1.1 °C -1.0 °C 1032.1 hPa NE 9.0 km/h 9.0 km/h 83 % 0.0 mm
06:11 1.0 °C -1.0 °C 1032.1 hPa NE 5.8 km/h 9.0 km/h 83 % 0.0 mm
06:16 0.9 °C -1.0 °C 1032.1 hPa NE 6.1 km/h 9.0 km/h 84 % 0.0 mm
06:21 0.8 °C -1.0 °C 1032.1 hPa NNE 6.1 km/h 9.0 km/h 84 % 0.0 mm
06:26 0.8 °C -1.0 °C 1032.1 hPa NNE 9.0 km/h 10.5 km/h 84 % 0.0 mm
06:31 0.8 °C -1.0 °C 1032.1 hPa NNE 6.9 km/h 10.5 km/h 84 % 0.0 mm
06:36 0.8 °C -1.0 °C 1032.1 hPa ENE 5.8 km/h 9.0 km/h 84 % 0.0 mm
06:41 0.7 °C -1.0 °C 1033.1 hPa NNE 7.6 km/h 9.0 km/h 84 % 0.0 mm
06:46 0.7 °C -1.0 °C 1033.1 hPa North 8.7 km/h 9.0 km/h 84 % 0.0 mm
06:51 0.7 °C -1.0 °C 1033.1 hPa North 6.4 km/h 9.7 km/h 84 % 0.0 mm
06:56 0.5 °C -1.0 °C 1033.1 hPa East 6.9 km/h 9.7 km/h 84 % 0.0 mm
07:01 0.5 °C -1.0 °C 1033.1 hPa NE 7.9 km/h 9.3 km/h 84 % 0.0 mm
07:06 0.6 °C -1.0 °C 1033.1 hPa NE 4.3 km/h 9.7 km/h 84 % 0.0 mm
07:11 0.7 °C -1.0 °C 1033.1 hPa NNE 6.9 km/h 9.7 km/h 85 % 0.0 mm
07:16 0.7 °C -1.0 °C 1033.1 hPa NE 5.5 km/h 9.7 km/h 85 % 0.0 mm
07:22 0.9 °C -1.0 °C 1033.1 hPa NNE 5.0 km/h 7.2 km/h 85 % 0.0 mm
07:27 1.0 °C -1.0 °C 1033.1 hPa North 3.5 km/h 6.9 km/h 84 % 0.0 mm
07:32 1.2 °C -1.0 °C 1033.1 hPa NNE 4.7 km/h 6.4 km/h 84 % 0.0 mm
07:37 1.4 °C -1.0 °C 1033.1 hPa North 4.3 km/h 6.4 km/h 85 % 0.0 mm
07:42 1.8 °C 0.0 °C 1033.1 hPa NE 5.8 km/h 6.9 km/h 85 % 0.0 mm
07:47 2.0 °C 0.0 °C 1033.1 hPa NNE 5.8 km/h 6.9 km/h 84 % 0.0 mm
07:52 2.3 °C 0.0 °C 1033.1 hPa NNE 5.5 km/h 10.1 km/h 83 % 0.0 mm
07:57 2.5 °C 0.0 °C 1033.1 hPa North 5.0 km/h 10.1 km/h 83 % 0.0 mm
08:02 2.7 °C 0.0 °C 1033.1 hPa NNE 5.8 km/h 9.3 km/h 81 % 0.0 mm
08:07 3.0 °C 0.0 °C 1033.1 hPa North 6.4 km/h 10.1 km/h 81 % 0.0 mm
08:12 3.2 °C 1.0 °C 1033.1 hPa NNE 9.0 km/h 11.1 km/h 80 % 0.0 mm
08:17 3.4 °C 0.0 °C 1033.1 hPa North 7.9 km/h 13.0 km/h 78 % 0.0 mm
08:22 3.6 °C 0.0 °C 1033.1 hPa NNE 9.0 km/h 13.7 km/h 78 % 0.0 mm
08:27 4.0 °C 0.0 °C 1033.1 hPa NNE 15.8 km/h 15.8 km/h 76 % 0.0 mm
08:32 4.3 °C 1.0 °C 1033.1 hPa North 9.7 km/h 15.8 km/h 76 % 0.0 mm
08:37 4.4 °C 1.0 °C 1033.1 hPa NE 6.9 km/h 13.7 km/h 75 % 0.0 mm
08:42 4.9 °C 1.0 °C 1033.1 hPa NE 12.6 km/h 16.9 km/h 73 % 0.0 mm
08:47 5.3 °C 1.0 °C 1033.1 hPa North 10.1 km/h 16.9 km/h 71 % 0.0 mm
08:52 5.4 °C 1.0 °C 1034.1 hPa East 10.8 km/h 12.6 km/h 71 % 0.0 mm
08:57 5.7 °C 1.0 °C 1034.1 hPa NE 9.7 km/h 17.2 km/h 68 % 0.0 mm
09:02 6.1 °C 1.0 °C 1034.1 hPa NE 10.5 km/h 17.2 km/h 68 % 0.0 mm
09:07 6.3 °C 1.0 °C 1034.1 hPa NE 11.9 km/h 14.8 km/h 65 % 0.0 mm
09:13 6.4 °C 0.0 °C 1034.1 hPa NE 7.9 km/h 16.6 km/h 63 % 0.0 mm
09:18 6.8 °C 0.0 °C 1034.1 hPa NNE 9.7 km/h 16.9 km/h 63 % 0.0 mm
09:23 7.1 °C 0.0 °C 1034.1 hPa ENE 10.1 km/h 14.0 km/h 61 % 0.0 mm
09:28 7.2 °C 0.0 °C 1034.1 hPa NE 16.9 km/h 17.2 km/h 59 % 0.0 mm
09:33 7.4 °C -1.0 °C 1034.1 hPa NE 12.6 km/h 17.2 km/h 57 % 0.0 mm
09:38 7.6 °C 0.0 °C 1034.1 hPa ENE 15.4 km/h 16.9 km/h 57 % 0.0 mm
09:43 7.9 °C 0.0 °C 1034.1 hPa NE 12.6 km/h 16.9 km/h 56 % 0.0 mm
09:48 8.1 °C 0.0 °C 1034.1 hPa ENE 12.2 km/h 17.2 km/h 54 % 0.0 mm
09:53 8.2 °C -1.0 °C 1034.1 hPa NE 12.6 km/h 17.2 km/h 53 % 0.0 mm
09:58 8.3 °C -1.0 °C 1034.1 hPa NE 14.3 km/h 16.3 km/h 52 % 0.0 mm
10:03 8.5 °C -1.0 °C 1034.1 hPa NE 20.6 km/h 20.6 km/h 51 % 0.0 mm
10:08 8.6 °C -1.0 °C 1034.1 hPa NE 13.0 km/h 20.6 km/h 50 % 0.0 mm
10:13 8.8 °C -1.0 °C 1034.1 hPa North 20.1 km/h 20.1 km/h 49 % 0.0 mm
10:18 8.7 °C -1.0 °C 1034.1 hPa NNE 16.3 km/h 22.4 km/h 48 % 0.0 mm
10:23 8.7 °C -2.0 °C 1034.1 hPa NE 15.4 km/h 22.4 km/h 47 % 0.0 mm
10:28 9.0 °C -1.0 °C 1034.1 hPa ENE 11.6 km/h 21.2 km/h 47 % 0.0 mm
10:33 9.2 °C -1.0 °C 1034.1 hPa East 16.9 km/h 20.9 km/h 46 % 0.0 mm
10:38 9.2 °C -1.0 °C 1034.1 hPa North 21.2 km/h 21.2 km/h 46 % 0.0 mm
10:43 9.0 °C -2.0 °C 1034.1 hPa ENE 14.3 km/h 25.3 km/h 44 % 0.0 mm
10:48 9.1 °C -2.0 °C 1034.1 hPa NE 14.0 km/h 25.9 km/h 44 % 0.0 mm
10:53 9.3 °C -3.0 °C 1034.1 hPa East 12.6 km/h 25.9 km/h 43 % 0.0 mm
10:59 9.4 °C -3.0 °C 1034.1 hPa NE 15.1 km/h 20.9 km/h 43 % 0.0 mm
11:04 9.4 °C -3.0 °C 1034.1 hPa NE 17.7 km/h 20.6 km/h 43 % 0.0 mm
11:09 9.8 °C -2.0 °C 1034.1 hPa ESE 13.7 km/h 21.6 km/h 44 % 0.0 mm
11:14 9.9 °C -2.0 °C 1034.1 hPa NNE 19.8 km/h 23.0 km/h 42 % 0.0 mm
11:19 9.8 °C -3.0 °C 1034.1 hPa ENE 16.6 km/h 27.7 km/h 42 % 0.0 mm
11:24 10.0 °C -2.0 °C 1034.1 hPa ENE 15.8 km/h 27.7 km/h 42 % 0.0 mm
11:29 10.2 °C -2.0 °C 1034.1 hPa East 21.2 km/h 24.8 km/h 42 % 0.0 mm
11:34 10.2 °C -2.0 °C 1034.1 hPa NE 16.3 km/h 21.2 km/h 42 % 0.0 mm
11:39 10.0 °C -3.0 °C 1034.1 hPa NNE 16.9 km/h 28.0 km/h 41 % 0.0 mm
11:44 10.1 °C -3.0 °C 1034.1 hPa ENE 19.5 km/h 28.0 km/h 41 % 0.0 mm
11:49 10.4 °C -3.0 °C 1034.1 hPa NE 16.3 km/h 25.6 km/h 40 % 0.0 mm
11:54 10.3 °C -3.0 °C 1034.1 hPa NE 13.0 km/h 23.3 km/h 40 % 0.0 mm
11:59 10.5 °C -2.0 °C 1034.1 hPa ENE 21.2 km/h 28.5 km/h 40 % 0.0 mm
12:04 10.5 °C -2.0 °C 1034.1 hPa NE 19.8 km/h 28.5 km/h 40 % 0.0 mm
12:09 10.8 °C -2.0 °C 1034.1 hPa ENE 16.6 km/h 23.3 km/h 40 % 0.0 mm
12:14 10.8 °C -2.0 °C 1034.1 hPa NNE 14.0 km/h 28.0 km/h 40 % 0.0 mm
12:19 10.9 °C -2.0 °C 1035.1 hPa NNE 19.8 km/h 28.0 km/h 39 % 0.0 mm
12:24 10.8 °C -3.0 °C 1035.1 hPa NE 16.6 km/h 25.9 km/h 39 % 0.0 mm
12:29 11.1 °C -2.0 °C 1035.1 hPa NE 13.0 km/h 25.9 km/h 39 % 0.0 mm
12:34 11.2 °C -2.0 °C 1035.1 hPa NNE 14.0 km/h 24.8 km/h 39 % 0.0 mm
12:39 11.2 °C -2.0 °C 1035.1 hPa East 17.2 km/h 27.7 km/h 39 % 0.0 mm
12:44 11.1 °C -2.0 °C 1035.1 hPa NE 17.7 km/h 27.7 km/h 39 % 0.0 mm
12:49 11.1 °C -2.0 °C 1035.1 hPa NNE 16.6 km/h 24.8 km/h 39 % 0.0 mm
12:54 11.1 °C -2.0 °C 1035.1 hPa ENE 21.6 km/h 26.2 km/h 39 % 0.0 mm
12:59 11.1 °C -3.0 °C 1035.1 hPa NE 14.0 km/h 32.0 km/h 38 % 0.0 mm
13:04 11.3 °C -3.0 °C 1035.1 hPa NE 25.9 km/h 32.0 km/h 38 % 0.0 mm
13:09 11.3 °C -3.0 °C 1035.1 hPa NE 15.8 km/h 27.4 km/h 38 % 0.0 mm
13:14 11.6 °C -2.0 °C 1034.1 hPa ENE 15.8 km/h 27.4 km/h 38 % 0.0 mm
13:19 11.6 °C -2.0 °C 1034.1 hPa North 14.3 km/h 28.5 km/h 38 % 0.0 mm
13:24 11.6 °C -2.0 °C 1034.1 hPa ENE 28.0 km/h 29.9 km/h 38 % 0.0 mm
13:29 11.7 °C -2.0 °C 1034.1 hPa NE 25.6 km/h 35.2 km/h 38 % 0.0 mm
13:34 11.6 °C -3.0 °C 1034.1 hPa NNE 18.0 km/h 35.2 km/h 37 % 0.0 mm
13:39 11.9 °C -2.0 °C 1034.1 hPa ENE 19.8 km/h 21.2 km/h 38 % 0.0 mm
13:44 11.9 °C -2.0 °C 1034.1 hPa NE 20.6 km/h 26.7 km/h 38 % 0.0 mm
13:49 11.5 °C -2.0 °C 1034.1 hPa NNE 16.3 km/h 28.5 km/h 38 % 0.0 mm
13:54 11.8 °C -3.0 °C 1034.1 hPa NNE 15.8 km/h 28.5 km/h 37 % 0.0 mm
14:00 12.1 °C -2.0 °C 1034.1 hPa NE 14.0 km/h 24.5 km/h 37 % 0.0 mm
14:05 11.6 °C -2.0 °C 1034.1 hPa ENE 27.7 km/h 27.7 km/h 38 % 0.0 mm
14:10 11.4 °C -3.0 °C 1034.1 hPa NE 28.0 km/h 33.5 km/h 38 % 0.0 mm
14:15 12.0 °C -2.0 °C 1034.1 hPa North 15.8 km/h 33.5 km/h 37 % 0.0 mm
14:20 12.0 °C -2.0 °C 1034.1 hPa NE 20.9 km/h 33.1 km/h 37 % 0.0 mm
14:25 12.2 °C -2.0 °C 1034.1 hPa NE 16.3 km/h 28.0 km/h 37 % 0.0 mm
14:30 12.7 °C -1.0 °C 1034.1 hPa NNE 17.2 km/h 27.7 km/h 37 % 0.0 mm
14:35 12.4 °C -2.0 °C 1034.1 hPa NE 20.6 km/h 28.5 km/h 37 % 0.0 mm
14:40 12.6 °C -2.0 °C 1034.1 hPa NE 28.0 km/h 28.5 km/h 36 % 0.0 mm
14:45 12.5 °C -1.0 °C 1034.1 hPa NE 14.0 km/h 28.0 km/h 37 % 0.0 mm
14:50 12.8 °C -1.0 °C 1034.1 hPa ENE 24.8 km/h 25.9 km/h 37 % 0.0 mm
14:55 13.0 °C -1.0 °C 1034.1 hPa ENE 9.7 km/h 25.9 km/h 36 % 0.0 mm
15:00 13.1 °C -1.0 °C 1034.1 hPa NE 17.2 km/h 25.6 km/h 36 % 0.0 mm
15:05 12.8 °C -1.0 °C 1034.1 hPa NNE 17.7 km/h 25.6 km/h 37 % 0.0 mm
15:10 12.9 °C -1.0 °C 1034.1 hPa ENE 18.3 km/h 22.7 km/h 37 % 0.0 mm
15:15 12.1 °C -2.0 °C 1034.1 hPa NNE 18.3 km/h 21.2 km/h 36 % 0.0 mm
15:20 12.9 °C -1.0 °C 1034.1 hPa NE 15.8 km/h 21.2 km/h 37 % 0.0 mm
15:25 12.4 °C -2.0 °C 1034.1 hPa NE 14.8 km/h 37.5 km/h 36 % 0.0 mm
15:30 13.0 °C -1.0 °C 1034.1 hPa North 14.3 km/h 37.5 km/h 36 % 0.0 mm
15:35 12.1 °C -2.0 °C 1034.1 hPa NE 27.7 km/h 27.7 km/h 36 % 0.0 mm
15:40 11.0 °C -3.0 °C 1034.1 hPa NE 13.0 km/h 27.7 km/h 37 % 0.0 mm
15:45 12.5 °C -1.0 °C 1034.1 hPa NE 23.8 km/h 24.5 km/h 37 % 0.0 mm
15:56 12.4 °C -2.0 °C 1034.1 hPa NE 13.7 km/h 26.7 km/h 36 % 0.0 mm
16:01 12.7 °C -1.0 °C 1034.1 hPa NNE 16.3 km/h 26.7 km/h 37 % 0.0 mm
16:11 13.2 °C -1.0 °C 1034.1 hPa ENE 11.1 km/h 19.8 km/h 36 % 0.0 mm
16:16 12.8 °C -1.0 °C 1034.1 hPa NE 17.2 km/h 28.5 km/h 36 % 0.0 mm
16:21 12.9 °C -1.0 °C 1034.1 hPa ESE 16.9 km/h 28.5 km/h 37 % 0.0 mm
16:26 12.1 °C -2.0 °C 1034.1 hPa NNE 16.3 km/h 24.8 km/h 36 % 0.0 mm
16:31 11.8 °C -3.0 °C 1034.1 hPa NNE 14.3 km/h 28.5 km/h 37 % 0.0 mm
16:36 12.3 °C -2.0 °C 1033.1 hPa NE 27.4 km/h 28.5 km/h 36 % 0.0 mm
16:41 12.3 °C -2.0 °C 1033.1 hPa NNE 20.6 km/h 27.4 km/h 36 % 0.0 mm
16:46 12.3 °C -2.0 °C 1033.1 hPa NE 16.9 km/h 25.3 km/h 36 % 0.0 mm
16:51 12.7 °C -2.0 °C 1033.1 hPa ENE 11.9 km/h 25.3 km/h 36 % 0.0 mm
16:53 12.6 °C -2.0 °C 1033.1 hPa NE 20.6 km/h 23.0 km/h 36 % 0.0 mm
16:56 12.4 °C -2.0 °C 1033.1 hPa NE 23.3 km/h 25.3 km/h 36 % 0.0 mm
17:06 12.1 °C -2.0 °C 1033.1 hPa NE 13.0 km/h 28.0 km/h 36 % 0.0 mm
17:11 12.4 °C -2.0 °C 1033.1 hPa ENE 16.3 km/h 21.6 km/h 36 % 0.0 mm
17:16 11.9 °C -2.0 °C 1033.1 hPa NNE 12.2 km/h 27.7 km/h 37 % 0.0 mm
17:21 12.0 °C -2.0 °C 1033.1 hPa NE 17.2 km/h 27.7 km/h 37 % 0.0 mm
17:31 11.6 °C -3.0 °C 1033.1 hPa NE 19.8 km/h 27.7 km/h 37 % 0.0 mm
17:37 11.6 °C -3.0 °C 1034.1 hPa ENE 14.3 km/h 32.0 km/h 37 % 0.0 mm
17:42 11.9 °C -2.0 °C 1034.1 hPa ENE 16.3 km/h 32.0 km/h 37 % 0.0 mm
17:47 11.7 °C -3.0 °C 1034.1 hPa NE 14.8 km/h 21.2 km/h 37 % 0.0 mm
17:52 11.5 °C -3.0 °C 1033.1 hPa ENE 22.7 km/h 22.7 km/h 37 % 0.0 mm
17:57 11.4 °C -3.0 °C 1033.1 hPa NE 16.6 km/h 25.9 km/h 37 % 0.0 mm
18:02 11.4 °C -3.0 °C 1033.1 hPa NE 12.2 km/h 25.9 km/h 37 % 0.0 mm
18:07 11.5 °C -3.0 °C 1034.1 hPa ESE 12.6 km/h 20.9 km/h 37 % 0.0 mm
18:12 11.3 °C -3.0 °C 1034.1 hPa NE 23.8 km/h 23.8 km/h 37 % 0.0 mm
18:17 11.1 °C -3.0 °C 1034.1 hPa NNE 16.6 km/h 23.8 km/h 37 % 0.0 mm
18:22 10.5 °C -3.0 °C 1034.1 hPa NNE 13.0 km/h 21.6 km/h 37 % 0.0 mm
18:23 10.5 °C -3.0 °C 1034.1 hPa NE 12.2 km/h 21.6 km/h 37 % 0.0 mm
18:28 10.5 °C -3.0 °C 1034.1 hPa NE 13.0 km/h 24.5 km/h 37 % 0.0 mm
18:33 10.9 °C -3.0 °C 1034.1 hPa North 11.9 km/h 24.5 km/h 37 % 0.0 mm
18:38 10.9 °C -3.0 °C 1034.1 hPa NE 12.2 km/h 21.2 km/h 38 % 0.0 mm
18:43 10.8 °C -3.0 °C 1034.1 hPa NE 20.6 km/h 23.0 km/h 37 % 0.0 mm
18:48 10.6 °C -3.0 °C 1034.1 hPa ENE 12.2 km/h 24.5 km/h 37 % 0.0 mm
18:53 10.3 °C -4.0 °C 1034.1 hPa NE 14.0 km/h 24.5 km/h 37 % 0.0 mm
18:58 10.5 °C -3.0 °C 1034.1 hPa ENE 14.8 km/h 23.0 km/h 37 % 0.0 mm
19:03 10.6 °C -3.0 °C 1034.1 hPa ENE 12.2 km/h 17.7 km/h 38 % 0.0 mm
19:08 10.3 °C -3.0 °C 1034.1 hPa NE 17.7 km/h 22.4 km/h 38 % 0.0 mm
19:13 10.1 °C -4.0 °C 1034.1 hPa East 11.9 km/h 22.4 km/h 38 % 0.0 mm
19:18 10.1 °C -4.0 °C 1034.1 hPa NE 9.0 km/h 20.9 km/h 38 % 0.0 mm
19:23 10.1 °C -4.0 °C 1034.1 hPa ENE 15.4 km/h 17.7 km/h 38 % 0.0 mm
19:28 10.1 °C -4.0 °C 1034.1 hPa NNE 15.4 km/h 17.7 km/h 38 % 0.0 mm
19:34 9.7 °C -4.0 °C 1034.1 hPa NE 13.7 km/h 17.2 km/h 38 % 0.0 mm
19:39 9.6 °C -4.0 °C 1034.1 hPa NE 15.8 km/h 17.2 km/h 38 % 0.0 mm
19:44 9.4 °C -4.0 °C 1034.1 hPa NE 13.7 km/h 20.1 km/h 38 % 0.0 mm
19:49 8.9 °C -4.0 °C 1034.1 hPa NE 14.0 km/h 20.6 km/h 39 % 0.0 mm
19:54 8.7 °C -4.0 °C 1034.1 hPa NE 15.1 km/h 20.6 km/h 40 % 0.0 mm
19:59 8.6 °C -4.0 °C 1034.1 hPa NNE 8.7 km/h 17.7 km/h 40 % 0.0 mm
20:04 8.4 °C -4.0 °C 1034.1 hPa NE 13.0 km/h 16.9 km/h 40 % 0.0 mm
20:09 8.2 °C -5.0 °C 1034.1 hPa NE 10.1 km/h 20.9 km/h 40 % 0.0 mm
20:15 8.1 °C -4.0 °C 1034.1 hPa NNE 12.2 km/h 20.9 km/h 41 % 0.0 mm
20:20 7.9 °C -5.0 °C 1034.1 hPa NNE 12.6 km/h 17.2 km/h 41 % 0.0 mm
20:24 7.8 °C -5.0 °C 1034.1 hPa NE 13.0 km/h 17.2 km/h 42 % 0.0 mm
20:29 7.7 °C -5.0 °C 1034.1 hPa NE 10.1 km/h 16.9 km/h 42 % 0.0 mm
20:34 7.5 °C -5.0 °C 1034.1 hPa NNE 11.6 km/h 14.0 km/h 42 % 0.0 mm
20:39 7.3 °C -5.0 °C 1034.1 hPa NE 10.1 km/h 13.0 km/h 43 % 0.0 mm
20:41 7.3 °C -5.0 °C 1034.1 hPa NNE 9.3 km/h 13.7 km/h 43 % 0.0 mm
20:46 7.0 °C -5.0 °C 1034.1 hPa ENE 13.7 km/h 13.7 km/h 43 % 0.0 mm
20:51 6.8 °C -4.0 °C 1034.1 hPa NE 9.3 km/h 13.7 km/h 45 % 0.0 mm
20:56 6.6 °C -4.0 °C 1034.1 hPa NNE 9.0 km/h 14.0 km/h 46 % 0.0 mm
21:01 6.5 °C -4.0 °C 1034.1 hPa NNE 11.6 km/h 14.0 km/h 46 % 0.0 mm
21:06 6.1 °C -5.0 °C 1034.1 hPa NE 5.5 km/h 11.6 km/h 46 % 0.0 mm
21:10 5.9 °C -4.0 °C 1034.1 hPa North 9.7 km/h 11.6 km/h 47 % 0.0 mm
21:15 5.6 °C -4.0 °C 1034.1 hPa NNE 5.8 km/h 9.7 km/h 48 % 0.0 mm
21:20 5.4 °C -5.0 °C 1034.1 hPa North 6.4 km/h 9.7 km/h 48 % 0.0 mm
21:25 5.2 °C -5.0 °C 1035.1 hPa NNE 4.7 km/h 7.6 km/h 49 % 0.0 mm
21:30 5.0 °C -5.0 °C 1035.1 hPa NNE 5.8 km/h 7.6 km/h 49 % 0.0 mm
21:35 4.8 °C -5.0 °C 1036.1 hPa NNE 5.8 km/h 9.0 km/h 50 % 0.0 mm
21:40 4.7 °C -5.0 °C 1036.1 hPa NNE 6.1 km/h 9.3 km/h 51 % 0.0 mm
21:45 4.5 °C -5.0 °C 1036.1 hPa North 7.6 km/h 9.3 km/h 51 % 0.0 mm
21:50 4.4 °C -5.0 °C 1036.1 hPa Calm   9.0 km/h 51 % 0.0 mm
21:55 4.2 °C -5.0 °C 1035.1 hPa Calm   7.9 km/h 51 % 0.0 mm
22:00 4.1 °C -5.0 °C 1035.1 hPa North 5.8 km/h 7.9 km/h 52 % 0.0 mm
22:06 4.1 °C -5.0 °C 1035.1 hPa Calm   10.1 km/h 53 % 0.0 mm
22:11 4.1 °C -5.0 °C 1035.1 hPa NE 5.5 km/h 10.1 km/h 53 % 0.0 mm
22:16 4.1 °C -5.0 °C 1035.1 hPa North 4.7 km/h 8.7 km/h 53 % 0.0 mm
22:21 3.9 °C -4.0 °C 1035.1 hPa NNE 4.3 km/h 6.9 km/h 54 % 0.0 mm
22:26 3.9 °C -4.0 °C 1034.1 hPa North 5.0 km/h 6.9 km/h 54 % 0.0 mm
22:31 3.8 °C -5.0 °C 1034.1 hPa NE 5.8 km/h 6.1 km/h 54 % 0.0 mm
22:36 3.7 °C -5.0 °C 1035.1 hPa Calm   5.8 km/h 54 % 0.0 mm
22:41 3.6 °C -5.0 °C 1035.1 hPa Calm   4.7 km/h 54 % 0.0 mm
22:46 3.6 °C -5.0 °C 1035.1 hPa Calm   4.3 km/h 54 % 0.0 mm
22:51 3.3 °C -5.0 °C 1035.1 hPa Calm   4.3 km/h 54 % 0.0 mm
22:56 3.3 °C -5.0 °C 1034.1 hPa NNE 3.2 km/h 5.8 km/h 55 % 0.0 mm
23:01 3.3 °C -5.0 °C 1034.1 hPa NNE 4.3 km/h 5.8 km/h 55 % 0.0 mm
23:06 3.1 °C -5.0 °C 1034.1 hPa Calm   5.5 km/h 55 % 0.0 mm
23:11 3.0 °C -5.0 °C 1034.1 hPa Calm   4.3 km/h 55 % 0.0 mm
23:16 3.1 °C -5.0 °C 1034.1 hPa Calm   7.6 km/h 55 % 0.0 mm
23:26 3.2 °C -5.0 °C 1035.1 hPa North 4.3 km/h 5.5 km/h 56 % 0.0 mm
23:31 3.1 °C -5.0 °C 1035.1 hPa North 2.1 km/h 5.5 km/h 56 % 0.0 mm
23:36 2.8 °C -5.0 °C 1035.1 hPa Calm   4.3 km/h 57 % 0.0 mm
23:41 2.6 °C -5.0 °C 1035.1 hPa Calm   2.6 km/h 57 % 0.0 mm
23:46 2.6 °C -5.0 °C 1035.1 hPa Calm   4.3 km/h 57 % 0.0 mm
23:51 2.6 °C -5.0 °C 1035.1 hPa North 4.7 km/h 4.7 km/h 57 % 0.0 mm
23:56 2.6 °C -5.0 °C 1034.1 hPa North 4.3 km/h 4.7 km/h 57 % 0.0 mm
Le Gheer Warneton
Courtoisie de Weather Underground - 2.25 mb

Mise a jour : 18/12/2017 23:25:11
Généré par Cumulus 1.9.4 (1099)